Location: Baix
(44.7118°N, 4.7648°E)
Time: 15:33:12
(UTC+00:00)

Explorer 11/Cluster Stage 4 - Pass Details

Date: 29 November 2020
Orbit: 467 x 1258 km, 28.8° (Epoch: 14 January)

Event Time Altitude Azimuth Distance (km) Brightness Sun altitude
Rises 22:59:14 0° 241° (WSW) 3,616 - -66.1°
Reaches altitude 10° 23:03:17 10° 220° (SW) 2,478 - -66.3°
Maximum altitude 23:06:21 15° 188° (S) 2,024 - -66.5°
Drops below altitude 10° 23:09:08 10° 155° (SSE) 2,186 - -66.6°
Sets 23:12:20 0° 131° (SE) 2,940 - -66.7°
